Погода в Раякосках

Россия / Мурманская область     69°01′15″N   29°00′26″E
В апреле 2022 года жителям России запретили посещать сайт meteo.paraplan.net по решению Генеральной прокуратуры. Аудитория сайта уменьшилась в 10 раз. Владельцы сайта не видят смысла в поддержке погодного сервера в таких условиях. Сайт будет закрыт в октябре.
темп.,
°C
ветер,
м/с
пор.,
м/с
влажн.,
%
обл.,
%
осадки,
мм/ч
давл.,
гПа
погр.,
м
3 октября, пн
пн300:00+3ю2398100 0.4 1007106
03:00+4юз229887 0.9 100775
06:00+4зюз119798 0.0 100829
09:00+4зсз139251 0.0 100993
12:00+6зсз23805 0.0 1011420
15:00+6зсз23745 0.0 1013520
18:00+3зсз018959 0.0 101410
21:00+2ююв119072 0.0 101510
4 октября, вт
вт400:00+2юв1191100 0.0 101610
03:00+2вюв1191100 0.0 101610
06:00+1вюв119162 0.0 101612
09:00+2вюв1288100 0.0 101632
12:00+5вюв2480100 0.0 1016224
15:00+5вюв2482100 0.0 1015266
18:00+3юв2293100 0.0 101451
21:00+2юв2495100 0.0 101385
5 октября, ср
ср500:00+3ююв1294100 0.0 101241
03:00+4юв2494100 0.0 1011115
06:00+3ююв3793100 0.0 1010348
09:00+4ююв4789100 0.0 1009646
12:00+4ююв3796100 0.0 1009451
15:00+5ююв389485 0.0 1008420
18:00+5ююв3792100 0.0 1007271
21:00+5ююв389398 0.0 1006304
6 октября, чт
чт600:00+5ююв41088100 0.4 1004501
03:00+3ююв399613 0.4 1002223
06:00+6юв5139292 0.0 998539
09:00+6ююв71686100 0.0 9931021
12:00+7ююв91882100 0.3 9881089
15:00+7ююв91888100 1.9 9821087
18:00+7ююв71387100 0.6 979862
21:00+8ю71376100 0.6 9781235
7 октября, пт
пт700:00+6ю71492100 0.5 9761376
03:00+7ююз7128144 0.9 9761048
06:00+6юз6138234 0.0 978851
09:00+6зюз71380100 0.0 981641
12:00+8зюз4117517 0.0 984850
15:00+8зюз6116520 0.0 987860
18:00+6юз5127821 0.0 989531
21:00+4ююз411854 0.0 989388